This is the latest recevied weather packets stored in our database for station/object K0VSC-1. If no packets are shown the sender has not sent any weather packets the latest 10 day(s).
| Time | Temp. | Humidity | Pressure | Rain* | Wind** | Luminosity | Snow |
|---|---|---|---|---|---|---|---|
| 1777826590 | 15.56° C | 31% | 1007.7 hPa | 0 mm | - | 791 W/m² | - |
| 1777826290 | 15.56° C | 30% | 1007.6 hPa | 0 mm | - | 784 W/m² | - |
| 1777825990 | 15.56° C | 31% | 1007.7 hPa | 0 mm | - | 775 W/m² | - |
| 1777825691 | 15.56° C | 32% | 1007.8 hPa | 0 mm | - | 770 W/m² | - |
| 1777825390 | 15.56° C | 33% | 1007.6 hPa | 0 mm | - | 765 W/m² | - |
| 1777825090 | 15° C | 35% | 1007.6 hPa | 0 mm | - | 752 W/m² | - |
| 1777824790 | 15° C | 37% | 1007.8 hPa | 0 mm | - | 745 W/m² | - |
| 1777824491 | 15° C | 38% | 1007.8 hPa | 0 mm | - | 735 W/m² | - |
| 1777824191 | 14.44° C | 40% | 1007.8 hPa | 0 mm | - | 722 W/m² | - |
| 1777823891 | 14.44° C | 42% | 1007.8 hPa | 0 mm | - | 670 W/m² | - |
| 1777823591 | 14.44° C | 41% | 1007.7 hPa | 0 mm | - | 708 W/m² | - |
| 1777823290 | 14.44° C | 44% | 1007.6 hPa | 0 mm | - | 696 W/m² | - |
| 1777822991 | 14.44° C | 45% | 1007.7 hPa | 0 mm | - | 686 W/m² | - |
| 1777822691 | 14.44° C | 46% | 1007.7 hPa | 0 mm | - | 677 W/m² | - |
| 1777822391 | 14.44° C | 45% | 1007.7 hPa | 0 mm | - | 664 W/m² | - |
| 1777822091 | 14.44° C | 47% | 1007.6 hPa | 0 mm | - | 656 W/m² | - |
| 1777821791 | 14.44° C | 47% | 1007.7 hPa | 0 mm | - | 610 W/m² | - |
| 1777821491 | 14.44° C | 47% | 1007.7 hPa | 0 mm | - | 635 W/m² | - |
| 1777821191 | 13.89° C | 49% | 1007.6 hPa | 0 mm | - | 624 W/m² | - |
| 1777820891 | 13.89° C | 48% | 1007.7 hPa | 0 mm | - | 601 W/m² | - |
| 1777820591 | 13.89° C | 49% | 1007.6 hPa | 0 mm | - | 599 W/m² | - |
| 1777820291 | 13.89° C | 51% | 1007.5 hPa | 0 mm | - | 580 W/m² | - |
| 1777819991 | 13.89° C | 50% | 1007.6 hPa | 0 mm | - | 575 W/m² | - |
| 1777819691 | 13.89° C | 50% | 1007.5 hPa | 0 mm | - | 563 W/m² | - |
| 1777819391 | 13.89° C | 51% | 1007.6 hPa | 0 mm | - | 548 W/m² | - |
* Rain latest hour (hover to see other rain measurements)
** Current wind speed in m/s (hover to see current wind gust speed)